This demonstration page uses our WeatherBlox Daily Observations layout. Learn more.

Left ArrowRight Arrow

Hourly Observations for January 14, 2020

Temp ( °F °C ) Dew Point ( °F °C ) Humidity (%) Winds ( mph kmh ) Pressure ( in mb ) Visibility ( mi km ) Precip ( " mm )
12:53 am 00:53 Mostly Cloudy -11 -23.9 -18 -27.8 70 70 Calm 30.27 1025 10 16 0.00 0.00
1:53 am 01:53 Cloudy with Light Snow -10 -23.3 -17 -27.2 70 70 Calm 30.27 1025 5 8 0.00 0.00
2:53 am 02:53 Cloudy with Light Snow -9 -22.8 -17 -27.2 67 67 Calm 30.27 1025 4 6 0.00 0.00
3:53 am 03:53 Cloudy with Light Snow -9 -22.8 -16 -26.7 71 71 NE 5 7 30.27 1025 3 5 0.00 0.00
4:53 am 04:53 Cloudy -9 -22.8 -16 -26.7 71 71 ENE 6 9 30.26 1025 10 16 0.00 0.00
5:53 am 05:53 Cloudy -9 -22.8 -16 -26.7 71 71 ENE 8 13 30.27 1025 10 16 0.00 0.00
6:53 am 06:53 Cloudy with Haze -9 -22.8 -16 -26.7 71 71 ENE 9 15 30.27 1025 4 6 0.00 0.00
7:11 am 07:11 Cloudy with Haze -9 -22.8 -16 -26.7 71 71 ENE 9 15 30.41 1030 3 4 0.00 0.00
7:41 am 07:41 Cloudy with Light Snow -9 -22.8 -16 -26.7 71 71 ENE 12 19 30.41 1030 2 3 0.01 0.25
7:53 am 07:53 Cloudy with Light Snow -9 -22.8 -16 -26.7 71 71 ENE 9 15 30.27 1025 2 3 0.02 0.51
8:08 am 08:08 Cloudy with Light Snow -9 -23 -17 -27 70 70 ENE 10 17 30.42 1030 1 2 0.00 0.00
8:21 am 08:21 Mostly Cloudy with Snow -9 -22.8 -16 -26.7 71 71 ENE 10 17 30.41 1030 1 1 0.01 0.25
8:49 am 08:49 Cloudy with Light Snow -9 -23 -17 -27 70 70 NE 12 19 30.42 1030 1 2 0.02 0.51
8:53 am 08:53 Cloudy with Light Snow -9 -22.8 -16 -26.7 71 71 ENE 10 17 30.28 1025 1 2 0.02 0.51
9:12 am 09:12 Cloudy with Haze -9 -22.8 -16 -26.7 71 71 ENE 13 20 30.42 1030 2 3 0.01 0.25
9:19 am 09:19 Cloudy with Haze -9 -22.8 -16 -26.7 71 71 ENE 12 19 30.42 1030 2 3 0.01 0.25
9:53 am 09:53 Cloudy with Haze -9 -22.8 -15 -26.1 75 75 ENE 10 17 30.29 1026 2 3 0.01 0.25
10:05 am 10:05 Cloudy with Light Snow -9 -22.8 -16 -26.7 71 71 ENE 12 19 30.43 1030 2 2 0.00 0.00
10:14 am 10:14 Cloudy with Light Snow -9 -22.8 -15 -26.1 75 75 NE 13 20 30.44 1031 1 2 0.00 0.00
10:45 am 10:45 Cloudy with Light Snow -9 -22.8 -16 -26.7 71 71 NE 12 19 30.45 1031 2 3 0.01 0.25
10:53 am 10:53 Cloudy with Haze -8 -22.2 -15 -26.1 71 71 NE 13 20 30.30 1026 3 5 0.01 0.25
11:02 am 11:02 Cloudy with Haze -9 -22.8 -16 -26.7 71 71 ENE 13 20 30.44 1031 4 6 0.00 0.00
11:25 am 11:25 Cloudy with Light Snow -8 -22.2 -16 -26.7 67 67 NE 13 20 30.43 1030 3 4 0.00 0.00
11:43 am 11:43 Cloudy with Haze -8 -22.2 -15 -26.1 71 71 ENE 13 20 30.42 1030 3 5 0.00 0.00
11:53 am 11:53 Cloudy -8 -22.2 -16 -26.7 67 67 ENE 12 19 30.29 1026 9 14 0.00 0.00
12:27 pm 12:27 Cloudy with Light Snow -7 -21.7 -15 -26.1 68 68 ENE 10 17 30.40 1030 3 4 0.00 0.00
12:53 pm 12:53 Cloudy with Light Snow -7 -21.7 -15 -26.1 68 68 NE 12 19 30.27 1025 2 3 0.00 0.00
1:12 pm 13:12 Cloudy with Light Snow -7 -21.7 -15 -26.1 68 68 ENE 8 13 30.39 1029 2 2 0.00 0.00
1:29 pm 13:29 Cloudy with Light Snow -7 -21.7 -15 -26.1 68 68 ENE 9 15 30.39 1029 2 3 0.00 0.00
1:40 pm 13:40 Cloudy with Haze -7 -21.7 -15 -26.1 68 68 E 9 15 30.39 1029 3 5 0.00 0.00
1:53 pm 13:53 Cloudy with Haze -7 -21.7 -15 -26.1 68 68 E 9 15 30.26 1025 4 6 0.00 0.00
2:20 pm 14:20 Cloudy with Light Snow -7 -21.7 -15 -26.1 68 68 ENE 9 15 30.39 1029 2 3 0.00 0.00
2:28 pm 14:28 Cloudy with Light Snow -7 -21.7 -15 -26.1 68 68 ENE 10 17 30.39 1029 1 2 0.00 0.00
2:53 pm 14:53 Cloudy with Light Snow -7 -21.7 -14 -25.6 71 71 ENE 9 15 30.27 1025 2 2 0.01 0.25
3:10 pm 15:10 Cloudy with Light Snow -7 -21.7 -14 -25.6 71 71 ENE 12 19 30.40 1030 1 1 0.00 0.00
3:20 pm 15:20 Cloudy with Light Snow -8 -22 -15 -26 70 70 ENE 10 17 30.41 1030 2 2 0.00 0.00
3:26 pm 15:26 Cloudy with Light Snow -7 -21.7 -14 -25.6 71 71 ENE 10 17 30.40 1030 2 3 0.00 0.00
3:45 pm 15:45 Cloudy with Light Snow -8 -22.2 -14 -25.6 74 74 ENE 13 20 30.42 1030 3 5 0.00 0.00
3:53 pm 15:53 Cloudy with Light Snow -8 -22.2 -14 -25.6 74 74 ENE 13 20 30.28 1025 3 5 0.00 0.00
4:53 pm 16:53 Cloudy -9 -22.8 -16 -26.7 71 71 ENE 13 20 30.29 1026 10 16 0.00 0.00
5:53 pm 17:53 Mostly Cloudy -11 -23.9 -17 -27.2 74 74 ENE 10 17 30.32 1027 10 16 0.00 0.00
6:53 pm 18:53 Clear -13 -25 -19 -28.3 74 74 ENE 14 22 30.32 1027 10 16 0.00 0.00
7:53 pm 19:53 Mostly Clear -16 -26.7 -21 -29.4 78 78 ENE 10 17 30.34 1028 10 16 0.00 0.00
8:53 pm 20:53 Clear -17 -27.2 -23 -30.6 73 73 ENE 12 19 30.35 1028 10 16 0.00 0.00
9:53 pm 21:53 Clear -18 -27.8 -23 -30.6 77 77 ENE 10 17 30.35 1028 10 16 0.00 0.00
10:53 pm 22:53 Cloudy -15 -26.1 -21 -29.4 74 74 ENE 12 19 30.37 1028 10 16 0.00 0.00
11:53 pm 23:53 Cloudy -14 -25.6 -20 -28.9 74 74 ENE 13 20 30.38 1029 10 16 0.00 0.00

Powered by AerisWeather